星链-4314 (STARLINK-4314 )

导读 | 星芒AI

STARLINK-4314 是 SpaceX Starlink 项目中的一颗低轨通信卫星,属于第 43 批部署的 Starlink 卫星群。该卫星运行在约 550 公里的轨道高度,旨在为全球用户提供高速互联网服务。它采用先进的推进系统和激光通信技术,以提升网络稳定性和减少延迟。作为 Starlink 卫星网络的一部分,STARLINK-4314 有助于扩大覆盖范围,特别是在偏远和网络基础设施薄弱的地区。

基本信息
目录编号:
53056
目录名称:
STARLINK-4314
国际标识:
2022-077P
轨道中心:
EARTH
卫星名称:
星链-4314
卫星全名:
星链-4314 (STARLINK-4314 )
卫星状态:
在轨 (已飞行1213 天)
发射日期:
2022-07-11 UTC
国别 :
美国 (US)
星等 :
--
轨道信息
数据来源 国际轨道数据 AOE轨道数据
星历时间 2025-11-05T04:17:26+0800
6小时前
查看轨道信息
2025-10-30T21:00:00+0800
5天前
查看轨道信息
半长轴 6927.654km 6927.553km
偏心率 0.0001509 0.0001251
轨道倾角 97.602° 97.604°
近地点辐角 87.435° 86.610°
升交点赤经 128.160° 122.933°
平近点角 272.705° 343.484°
近地点 548.473km 548.551km
远地点 550.565km 550.285km
周期 95.640分钟 95.638分钟
每日圈数 15.056482 15.056812
详细信息
固有亮度:
5
最大亮度:
2.5
卫星平台:
Starlink v1.5
覆盖范围:
全球
运营商:
太空探索技术公司
运营商所在国:
美国
制造商(研发单位):
太空探索技术公司
制造商所在国:
美国
使用方式:
暂无
卫星简介
星链(Starlink)计划是由太空探索技术公司(SpaceX)提出的一个巨型低轨卫星互联网星座项目,计划在2019年至2024年间在太空搭建由约1.2万颗卫星组成的“星链”网络,其中1584颗将部署在地球上空550千米处的近地轨道,并从2020年开始工作。该卫星仍在工作。
2D轨道图
3D轨道图
轨道高度分析图
轨道倾角分析图
轨道综合分析图
查看轨道综合分析图